Location: Heidgraben
(53.7081°N, 9.6576°E)
Time: 04:33:22
(UTC+00:00)

Cosmos 2344 - Pass Details

Date: 05 July 2020
Orbit: 1249 x 2993 km, 63.3° (Epoch: 06 August)

Event Time Altitude Azimuth Distance (km) Brightness Sun altitude
Exits shadow 22:16:04 10° 194° (SSW) 3,277 5.2 -12.1°
Reaches altitude 10° 22:16:12 10° 194° (SSW) 3,233 5.2 -12.1°
Maximum altitude 22:23:15 48° 122° (ESE) 1,613 3.8 -12.4°
Drops below altitude 10° 22:30:59 10° 51° (NE) 3,543 6.3 -12.7°
Sets 22:34:15 0° 46° (NE) 4,694 7.0 -12.8°
